Location: Newark
(40.9833°N, 0.0333°W)
Time: 00:05:46
(UTC+00:00)

deb Explorer IX - Pass Details

Date: 30 October 2020
Orbit: 537 x 1105 km, 38.8° (Epoch: 02 December)

Event Time Altitude Azimuth Distance (km) Brightness Sun altitude
Rises 06:09:54 0° 258° (WSW) 3,365 - -4.3°
Exits shadow 06:10:12 - 258° (WSW) 3,260 ? -4.2°
Reaches altitude 10° 06:12:16 10° 256° (WSW) 2,515 ? -3.9°
Maximum altitude 06:18:21 72° 173° (S) 1,016 ? -2.8°
Drops below altitude 10° 06:25:20 10° 91° (E) 2,871 ? -1.5°
Sets 06:28:12 0° 89° (E) 3,872 ? -1.0°
